CSCL Long Beach — VRCZ7 — position and weather

sailwx.info

Track history (hours):
 
Tides and Currents Weather Stations Pressure Air Temp Water Temp Dewpoint Dewpoint Depression Visibility Wind Speed Wind Dir Waves Ship Positions

CSCL Long Beach

Last reported at 2014-Dec-19 15:03 UTC. Time now 2014-Dec-21 03:58 UTC.
Position N 36°26' E 013°43'.

Length 336.7 m; beam 45.6 m; draft 15 m.

Type: Cargo ship. MMSI: 477883900.

Date/timePositionNaut miles runAvg speedWind from/ knotsBaromVisibWave heightAir tempDewpointWater temp
2014-Dec-19 15:03N 36°26' E 013°43'  
2014-Dec-17 02:33N 35°59' W 005°22'2421.7
2014-Dec-17 01:27N 35°54' W 005°51'21217.6
2014-Dec-16 13:26N 37°33' W 009°45'1819.8
2014-Dec-16 12:32N 37°50' W 009°49'1919.8
2014-Dec-16 11:33N 38°09' W 009°56'1919.6
2014-Dec-16 10:33N 38°28' W 010°02'2019.6
2014-Dec-16 09:33N 38°47' W 010°06'2019.7
2014-Dec-16 08:32N 39°07' W 010°08'79317.4
2014-Dec-14 11:04N 50°26' W 000°30'918.3
2014-Dec-14 10:33N 50°28' W 000°15'2119.2
2014-Dec-14 09:28N 50°33' E 000°17'1819.6
2014-Dec-14 08:33N 50°40' E 000°43'2019.5
2014-Dec-14 07:32N 50°51' E 001°09'1818.7
2014-Dec-14 06:34N 51°03' E 001°31'1717.4
2014-Dec-14 05:33N 51°16' E 001°49'1514.7
2014-Dec-14 04:33N 51°22' E 002°11'1815.6
2014-Dec-14 03:25N 51°23' E 002°39'910.3
2014-Dec-14 02:33N 51°25' E 002°53'1312.7
2014-Dec-14 01:33N 51°21' E 003°12'1 0.6
2014-Dec-14 00:32N 51°21' E 003°11'0 0.0
2014-Dec-13 23:32N 51°21' E 003°11'0 0.0
2014-Dec-13 22:32N 51°21' E 003°11'0 0.0
2014-Dec-13 21:32N 51°21' E 003°11'0 0.0
2014-Dec-13 20:29N 51°21' E 003°11'0 0.0
2014-Dec-13 19:32N 51°21' E 003°11'0 0.0
2014-Dec-13 18:32N 51°21' E 003°11'0 0.0
2014-Dec-13 17:32N 51°21' E 003°11'0 0.0
2014-Dec-13 16:29N 51°21' E 003°11'0 0.0
2014-Dec-13 15:32N 51°21' E 003°11'0 0.0
2014-Dec-13 14:23N 51°21' E 003°11'0 0.0
2014-Dec-13 13:32N 51°21' E 003°11'0 0.0
2014-Dec-13 12:29N 51°21' E 003°11'0 0.0
2014-Dec-13 11:32N 51°21' E 003°11'0 0.0
2014-Dec-13 10:32N 51°21' E 003°11'0 0.0
2014-Dec-13 09:29N 51°21' E 003°11'0 0.0
2014-Dec-13 08:29N 51°21' E 003°11'0 0.0
2014-Dec-13 07:08N 51°21' E 003°11'0 0.0
2014-Dec-13 05:26N 51°21' E 003°11'0 0.0
2014-Dec-13 04:32N 51°21' E 003°11'0 0.0
2014-Dec-13 03:26N 51°21' E 003°11'0 0.0
2014-Dec-13 02:32N 51°21' E 003°11'0 0.0
2014-Dec-13 01:32N 51°21' E 003°11'0 0.0
2014-Dec-13 00:29N 51°21' E 003°11'0 0.0
2014-Dec-12 23:23N 51°21' E 003°11'0 0.0
2014-Dec-12 22:17N 51°21' E 003°11'0 0.0
2014-Dec-12 21:32N 51°21' E 003°11'0 0.0
2014-Dec-12 20:26N 51°21' E 003°11'0 0.0
2014-Dec-12 19:23N 51°21' E 003°11'0 0.0
2014-Dec-12 18:32N 51°21' E 003°11'0 0.0
2014-Dec-12 17:32N 51°21' E 003°11'0 0.0
2014-Dec-12 16:32N 51°21' E 003°11'0 0.0
2014-Dec-12 15:32N 51°21' E 003°11'0 0.0
2014-Dec-12 14:29N 51°21' E 003°11'0 0.3
2014-Dec-12 13:33N 51°21' E 003°12'6 5.9
2014-Dec-12 12:33N 51°24' E 003°04'8 7.7
2014-Dec-12 11:33N 51°25' E 002°52'8 8.0
2014-Dec-12 10:33N 51°22' E 002°40'9 8.8
2014-Dec-12 09:34N 51°21' E 002°26'1514.6
2014-Dec-12 08:34N 51°21' E 002°03'1211.6
2014-Dec-12 07:33N 51°32' E 002°07'9 9.4
2014-Dec-12 06:33N 51°39' E 002°18'8 8.1
2014-Dec-12 05:33N 51°45' E 002°27'9 8.4
2014-Dec-12 04:31N 51°51' E 002°36'29 9.1
2014-Dec-12 01:22N 52°03' E 003°19'911.0
2014-Dec-12 00:32N 52°03' E 003°33'1111.3
2014-Dec-11 23:33N 52°02' E 003°51'8 8.2
2014-Dec-11 22:33N 51°59' E 004°04'1 1.1
2014-Dec-11 21:32N 51°58' E 004°03'0 0.2
2014-Dec-11 20:32N 51°58' E 004°02'0 0.0
2014-Dec-11 19:32N 51°58' E 004°02'0 0.0
2014-Dec-11 18:32N 51°58' E 004°02'0 0.0
2014-Dec-11 17:32N 51°58' E 004°02'0 0.0
2014-Dec-11 16:32N 51°58' E 004°02'0 0.0
2014-Dec-11 15:32N 51°58' E 004°02'0 0.0
2014-Dec-11 14:32N 51°58' E 004°02'0 0.0
2014-Dec-11 13:29N 51°58' E 004°02'0 0.0
2014-Dec-11 12:29N 51°58' E 004°02'0 0.0
2014-Dec-11 11:32N 51°58' E 004°02'0 0.0
2014-Dec-11 10:32N 51°58' E 004°02'0 0.0
2014-Dec-11 09:32N 51°58' E 004°02'0 0.0
2014-Dec-11 08:32N 51°58' E 004°02'0 0.0
2014-Dec-11 07:32N 51°58' E 004°02'0 0.0
2014-Dec-11 06:32N 51°58' E 004°02'0 0.0
2014-Dec-11 05:32N 51°58' E 004°02'0 0.0
2014-Dec-11 04:32N 51°58' E 004°02'0 0.0
2014-Dec-11 03:32N 51°58' E 004°02'0 0.0
2014-Dec-11 02:32N 51°58' E 004°02'0 0.0
2014-Dec-11 01:32N 51°58' E 004°02'0 0.0
2014-Dec-11 00:32N 51°58' E 004°02'0 0.0
2014-Dec-10 23:32N 51°58' E 004°02'0 0.0
2014-Dec-10 22:32N 51°58' E 004°02'0 0.0
2014-Dec-10 21:32N 51°58' E 004°02'0 0.0
2014-Dec-10 20:32N 51°58' E 004°02'0 0.0
2014-Dec-10 19:32N 51°58' E 004°02'0 0.0
2014-Dec-10 18:32N 51°58' E 004°02'0 0.0
2014-Dec-10 17:32N 51°58' E 004°02'0 0.0
2014-Dec-10 16:32N 51°58' E 004°02'0 0.0
2014-Dec-10 15:32N 51°58' E 004°02'0 0.0
2014-Dec-10 14:32N 51°58' E 004°02'0 0.0
2014-Dec-10 13:32N 51°58' E 004°02'0 0.0
2014-Dec-10 12:32N 51°58' E 004°02'0 0.0
2014-Dec-10 11:32N 51°58' E 004°02'0 0.0
2014-Dec-10 10:32N 51°58' E 004°02'0 0.0
2014-Dec-10 09:32N 51°58' E 004°02'0 0.0
2014-Dec-10 08:32N 51°58' E 004°02'0 0.0
2014-Dec-10 07:32N 51°58' E 004°02'0 0.0
2014-Dec-10 06:29N 51°58' E 004°02'0 0.0
2014-Dec-10 05:32N 51°58' E 004°02'0 0.0
2014-Dec-10 04:32N 51°58' E 004°02'0 0.0
2014-Dec-10 03:32N 51°58' E 004°02'0 0.0
2014-Dec-10 02:32N 51°58' E 004°02'0 0.0
2014-Dec-10 01:29N 51°58' E 004°02'0 0.0
2014-Dec-10 00:32N 51°58' E 004°02'0 0.0
2014-Dec-09 23:32N 51°58' E 004°02'0 0.0
2014-Dec-09 22:32N 51°58' E 004°02'0 0.0
2014-Dec-09 21:32N 51°58' E 004°02'2 1.9
2014-Dec-09 20:33N 51°58' E 004°05'9 9.1
2014-Dec-09 19:33N 52°00' E 003°51'10 9.8
2014-Dec-09 18:33N 52°05' E 003°37'1110.1
2014-Dec-09 17:30N 52°12' E 003°23'1111.7
2014-Dec-09 16:31N 52°23' E 003°27'1212.0
2014-Dec-09 15:31N 52°35' E 003°30'  
Track history (hours):
 
Tides and Currents Weather Stations Pressure Air Temp Water Temp Dewpoint Dewpoint Depression Visibility Wind Speed Wind Dir Waves Ship Positions

CSCL Long Beach

Last reported at 2014-Dec-19 15:03 UTC. Time now 2014-Dec-21 03:58 UTC.
Position N 36°26' E 013°43'.

Length 336.7 m; beam 45.6 m; draft 15 m.

Type: Cargo ship. MMSI: 477883900.

Date/timePositionNaut miles runAvg speedWind from/ knotsBaromVisibWave heightAir tempDewpointWater temp
2014-Dec-19 15:03N 36°26' E 013°43'  
2014-Dec-17 02:33N 35°59' W 005°22'2421.7
2014-Dec-17 01:27N 35°54' W 005°51'21217.6
2014-Dec-16 13:26N 37°33' W 009°45'1819.8
2014-Dec-16 12:32N 37°50' W 009°49'1919.8
2014-Dec-16 11:33N 38°09' W 009°56'1919.6
2014-Dec-16 10:33N 38°28' W 010°02'2019.6
2014-Dec-16 09:33N 38°47' W 010°06'2019.7
2014-Dec-16 08:32N 39°07' W 010°08'79317.4
2014-Dec-14 11:04N 50°26' W 000°30'918.3
2014-Dec-14 10:33N 50°28' W 000°15'2119.2
2014-Dec-14 09:28N 50°33' E 000°17'1819.6
2014-Dec-14 08:33N 50°40' E 000°43'2019.5
2014-Dec-14 07:32N 50°51' E 001°09'1818.7
2014-Dec-14 06:34N 51°03' E 001°31'1717.4
2014-Dec-14 05:33N 51°16' E 001°49'1514.7
2014-Dec-14 04:33N 51°22' E 002°11'1815.6
2014-Dec-14 03:25N 51°23' E 002°39'910.3
2014-Dec-14 02:33N 51°25' E 002°53'1312.7
2014-Dec-14 01:33N 51°21' E 003°12'1 0.6
2014-Dec-14 00:32N 51°21' E 003°11'0 0.0
2014-Dec-13 23:32N 51°21' E 003°11'0 0.0
2014-Dec-13 22:32N 51°21' E 003°11'0 0.0
2014-Dec-13 21:32N 51°21' E 003°11'0 0.0
2014-Dec-13 20:29N 51°21' E 003°11'0 0.0
2014-Dec-13 19:32N 51°21' E 003°11'0 0.0
2014-Dec-13 18:32N 51°21' E 003°11'0 0.0
2014-Dec-13 17:32N 51°21' E 003°11'0 0.0
2014-Dec-13 16:29N 51°21' E 003°11'0 0.0
2014-Dec-13 15:32N 51°21' E 003°11'0 0.0
2014-Dec-13 14:23N 51°21' E 003°11'0 0.0
2014-Dec-13 13:32N 51°21' E 003°11'0 0.0
2014-Dec-13 12:29N 51°21' E 003°11'0 0.0
2014-Dec-13 11:32N 51°21' E 003°11'0 0.0
2014-Dec-13 10:32N 51°21' E 003°11'0 0.0
2014-Dec-13 09:29N 51°21' E 003°11'0 0.0
2014-Dec-13 08:29N 51°21' E 003°11'0 0.0
2014-Dec-13 07:08N 51°21' E 003°11'0 0.0
2014-Dec-13 05:26N 51°21' E 003°11'0 0.0
2014-Dec-13 04:32N 51°21' E 003°11'0 0.0
2014-Dec-13 03:26N 51°21' E 003°11'0 0.0
2014-Dec-13 02:32N 51°21' E 003°11'0 0.0
2014-Dec-13 01:32N 51°21' E 003°11'0 0.0
2014-Dec-13 00:29N 51°21' E 003°11'0 0.0
2014-Dec-12 23:23N 51°21' E 003°11'0 0.0
2014-Dec-12 22:17N 51°21' E 003°11'0 0.0
2014-Dec-12 21:32N 51°21' E 003°11'0 0.0
2014-Dec-12 20:26N 51°21' E 003°11'0 0.0
2014-Dec-12 19:23N 51°21' E 003°11'0 0.0
2014-Dec-12 18:32N 51°21' E 003°11'0 0.0
2014-Dec-12 17:32N 51°21' E 003°11'0 0.0
2014-Dec-12 16:32N 51°21' E 003°11'0 0.0
2014-Dec-12 15:32N 51°21' E 003°11'0 0.0
2014-Dec-12 14:29N 51°21' E 003°11'0 0.3
2014-Dec-12 13:33N 51°21' E 003°12'6 5.9
2014-Dec-12 12:33N 51°24' E 003°04'8 7.7
2014-Dec-12 11:33N 51°25' E 002°52'8 8.0
2014-Dec-12 10:33N 51°22' E 002°40'9 8.8
2014-Dec-12 09:34N 51°21' E 002°26'1514.6
2014-Dec-12 08:34N 51°21' E 002°03'1211.6
2014-Dec-12 07:33N 51°32' E 002°07'9 9.4
2014-Dec-12 06:33N 51°39' E 002°18'8 8.1
2014-Dec-12 05:33N 51°45' E 002°27'9 8.4
2014-Dec-12 04:31N 51°51' E 002°36'29 9.1
2014-Dec-12 01:22N 52°03' E 003°19'911.0
2014-Dec-12 00:32N 52°03' E 003°33'1111.3
2014-Dec-11 23:33N 52°02' E 003°51'8 8.2
2014-Dec-11 22:33N 51°59' E 004°04'1 1.1
2014-Dec-11 21:32N 51°58' E 004°03'0 0.2
2014-Dec-11 20:32N 51°58' E 004°02'0 0.0
2014-Dec-11 19:32N 51°58' E 004°02'0 0.0
2014-Dec-11 18:32N 51°58' E 004°02'0 0.0
2014-Dec-11 17:32N 51°58' E 004°02'0 0.0
2014-Dec-11 16:32N 51°58' E 004°02'0 0.0
2014-Dec-11 15:32N 51°58' E 004°02'0 0.0
2014-Dec-11 14:32N 51°58' E 004°02'0 0.0
2014-Dec-11 13:29N 51°58' E 004°02'0 0.0
2014-Dec-11 12:29N 51°58' E 004°02'0 0.0
2014-Dec-11 11:32N 51°58' E 004°02'0 0.0
2014-Dec-11 10:32N 51°58' E 004°02'0 0.0
2014-Dec-11 09:32N 51°58' E 004°02'0 0.0
2014-Dec-11 08:32N 51°58' E 004°02'0 0.0
2014-Dec-11 07:32N 51°58' E 004°02'0 0.0
2014-Dec-11 06:32N 51°58' E 004°02'0 0.0
2014-Dec-11 05:32N 51°58' E 004°02'0 0.0
2014-Dec-11 04:32N 51°58' E 004°02'0 0.0
2014-Dec-11 03:32N 51°58' E 004°02'0 0.0
2014-Dec-11 02:32N 51°58' E 004°02'0 0.0
2014-Dec-11 01:32N 51°58' E 004°02'0 0.0
2014-Dec-11 00:32N 51°58' E 004°02'0 0.0
2014-Dec-10 23:32N 51°58' E 004°02'0 0.0
2014-Dec-10 22:32N 51°58' E 004°02'0 0.0
2014-Dec-10 21:32N 51°58' E 004°02'0 0.0
2014-Dec-10 20:32N 51°58' E 004°02'0 0.0
2014-Dec-10 19:32N 51°58' E 004°02'0 0.0
2014-Dec-10 18:32N 51°58' E 004°02'0 0.0
2014-Dec-10 17:32N 51°58' E 004°02'0 0.0
2014-Dec-10 16:32N 51°58' E 004°02'0 0.0
2014-Dec-10 15:32N 51°58' E 004°02'0 0.0
2014-Dec-10 14:32N 51°58' E 004°02'0 0.0
2014-Dec-10 13:32N 51°58' E 004°02'0 0.0
2014-Dec-10 12:32N 51°58' E 004°02'0 0.0
2014-Dec-10 11:32N 51°58' E 004°02'0 0.0
2014-Dec-10 10:32N 51°58' E 004°02'0 0.0
2014-Dec-10 09:32N 51°58' E 004°02'0 0.0
2014-Dec-10 08:32N 51°58' E 004°02'0 0.0
2014-Dec-10 07:32N 51°58' E 004°02'0 0.0
2014-Dec-10 06:29N 51°58' E 004°02'0 0.0
2014-Dec-10 05:32N 51°58' E 004°02'0 0.0
2014-Dec-10 04:32N 51°58' E 004°02'0 0.0
2014-Dec-10 03:32N 51°58' E 004°02'0 0.0
2014-Dec-10 02:32N 51°58' E 004°02'0 0.0
2014-Dec-10 01:29N 51°58' E 004°02'0 0.0
2014-Dec-10 00:32N 51°58' E 004°02'0 0.0
2014-Dec-09 23:32N 51°58' E 004°02'0 0.0
2014-Dec-09 22:32N 51°58' E 004°02'0 0.0
2014-Dec-09 21:32N 51°58' E 004°02'2 1.9
2014-Dec-09 20:33N 51°58' E 004°05'9 9.1
2014-Dec-09 19:33N 52°00' E 003°51'10 9.8
2014-Dec-09 18:33N 52°05' E 003°37'1110.1
2014-Dec-09 17:30N 52°12' E 003°23'1111.7
2014-Dec-09 16:31N 52°23' E 003°27'1212.0
2014-Dec-09 15:31N 52°35' E 003°30'  

Dump ship's entire track history